SCP
0 0 0 0 0 0 0 0 0 0 1 1 1 1 1 1 1 1 1 1 1 1 1 1 1 1 1 1 1 1 1 1 1 0 0 0 0 0 0 0 0 0 0
0 0 0 0 0 0 0 0 0 0 0 0 1 1 1 1 1 1 1 1 1 1 1 1 1 1 1 1 1 1 1 1 1 1 1 0 0 0 0 0 0 0 0
0 0 0 0 0 0 0 0 0 0 0 0 0 0 1 1 1 1 1 1 1 1 1 1 1 1 1 1 1 1 1 1 1 1 1 0 0 0 0 0 0 0 0
0 0 0 0 0 0 0 0 0 0 0 0 0 0 0 0 1 1 1 1 1 1 1 1 1 1 1 1 1 1 1 1 1 1 1 0 0 0 0 0 0 0 0
0 0 0 0 0 0 0 0 0 0 0 0 0 0 0 0 0 0 1 1 1 1 1 1 1 1 1 1 1 1 1 1 1 1 1 1 0 0 1 1 0 0 0
0 0 0 0 0 0 0 0 0 0 0 0 0 0 0 0 0 0 0 0 0 1 1 1 1 1 1 1 1 1 1 1 1 1 1 1 0 1 1 1 1 1 1
0 0 0 0 0 0 0 0 0 0 0 0 0 0 0 0 0 0 0 0 0 0 1 1 1 1 1 1 1 1 2 2 1 1 1 1 1 1 1 1 1 1 1
0 0 0 0 0 0 0 0 0 0 0 0 0 0 0 0 0 0 0 0 0 0 0 0 0 1 1 1 1 2 2 2 1 1 1 1 1 1 1 1 1 1 1
0 0 0 0 0 0 0 0 0 0 0 0 0 0 0 0 0 0 0 0 0 0 0 0 0 0 0 1 1 1 2 2 1 1 1 1 1 1 1 1 1 1 1
0 0 0 0 0 0 0 0 0 0 0 0 0 0 0 0 0 0 0 0 0 0 0 0 0 0 0 0 1 1 1 1 1 1 1 1 1 1 1 1 1 1 1
0 0 0 0 0 0 0 0 0 0 0 0 0 0 0 0 0 0 0 0 0 0 0 0 0 0 0 0 0 0 1 1 1 1 1 1 2 2 2 1 1 1 1
0 0 0 0 0 0 0 0 0 0 0 0 0 0 0 0 0 0 0 0 0 0 0 0 0 0 0 0 0 0 0 0 0 1 1 2 2 2 2 2 2 1 1
0 0 0 -0 -0 -0 0 0 0 0 0 0 0 0 0 0 0 0 0 0 0 0 0 0 0 0 0 0 0 0 0 0 0 0 1 2 3 3 3 3 2 2 2
0 0 -0 0 0 0 0 0 0 0 0 0 0 0 0 0 0 0 0 0 0 0 0 0 0 0 0 0 0 0 0 0 0 0 1 1 2 3 3 3 3 2 2
0 0 -0 0 0 0 0 0 0 0 0 0 0 0 0 0 0 0 0 0 0 0 0 0 0 0 0 0 0 0 0 0 0 0 0 1 2 3 3 4 4 3 2
0 0 0 0 0 0 0 0 0 0 0 0 0 0 0 0 0 0 0 0 0 0 0 0 0 0 0 0 0 0 0 0 0 0 0 1 1 2 3 4 4 4 3
0 0 0 0 0 0 0 0 0 0 0 0 0 0 0 0 0 0 0 0 0 0 0 0 0 0 0 0 0 0 0 0 0 0 0 0 1 1 2 3 4 4 4
0 0 0 0 0 0 0 0 0 0 0 0 0 0 0 0 0 0 0 0 0 0 0 0 0 0 0 0 0 0 0 0 0 0 0 0 0 1 1 2 3 3 4
0 0 0 0 0 0 0 0 0 0 0 0 0 0 0 0 0 0 0 0 0 0 0 0 0 0 0 0 0 0 0 0 0 0 0 0 0 0 0 1 2 3 3
0 0 0 0 0 0 0 0 0 0 0 0 0 0 0 0 0 0 0 0 0 0 0 0 0 0 0 0 0 0 0 0 0 0 0 0 0 0 0 0 1 2 2
0 0 0 0 0 0 0 0 0 0 0 0 0 0 0 0 0 0 0 0 0 0 0 0 0 0 0 0 0 0 0 0 0 0 0 0 0 0 0 0 0 1 1
0 0 0 0 0 0 0 0 0 0 0 0 0 0 0 0 0 0 0 0 0 0 0 0 0 0 0 0 0 0 0 0 0 0 0 0 0 0 0 0 0 0 1
0 0 0 0 0 0 0 0 0 0 0 0 0 0 0 0 0 0 0 0 0 0 0 0 0 0 0 0 0 0 0 0 0 0 0 0 0 0 0 0 0 0 0
0 0 0 0 0 0 0 0 0 0 0 0 0 0 0 0 0 0 0 0 0 0 0 0 0 0 0 0 0 0 0 0 0 0 0 0 0 0 0 0 0 0 0
0 0 0 0 0 0 0 0 0 0 0 0 0 0 0 0 0 0 0 0 0 0 0 0 0 0 0 0 0 0 0 0 0 0 0 0 0 0 0 0 0 0 0
0 0 0 0 0 0 0 0 0 0 0 0 0 0 0 0 0 0 0 0 0 0 0 0 0 0 0 0 0 0 0 0 0 0 0 0 0 0 0 0 0 0 0
Wind_Speed
10 12 24 25 26 26 26 26 26 26 26 25 25 24 22 21 20 18 17 16 14 13 13 12 12 11 11 11 10 9 7 6 6 5 5 4 3 3 3 2 0 1 5
9 12 23 25 25 26 26 26 26 26 25 26 26 25 24 23 22 21 19 18 17 16 15 14 13 12 12 12 11 10 9 8 7 6 5 5 5 5 4 3 2 3 6
11 14 17 26 26 26 26 26 26 26 26 26 26 26 25 25 24 23 22 21 20 19 18 16 15 14 13 13 12 12 11 10 9 7 6 4 4 7 7 6 4 6 7
14 15 18 26 26 26 26 26 26 27 26 27 27 27 27 26 25 25 24 24 23 22 20 19 17 16 15 13 13 13 13 12 10 8 4 4 4 8 9 9 8 8 7
15 15 19 27 27 27 27 27 27 27 27 27 27 27 27 27 26 26 26 25 24 23 23 21 20 18 16 15 14 13 14 13 11 8 5 4 4 9 11 12 11 10 9
13 14 19 28 28 27 27 27 27 27 27 27 27 27 27 27 27 26 26 26 25 25 24 23 22 20 19 17 16 15 14 13 10 5 5 5 5 10 13 14 13 12 11
12 12 17 28 29 28 27 28 27 27 27 27 27 27 27 27 27 27 27 27 26 26 25 25 24 23 21 19 17 16 15 13 8 6 6 5 6 12 14 14 15 14 13
11 12 15 26 29 28 28 28 28 27 27 27 27 27 27 27 28 27 28 28 27 26 26 25 25 25 24 22 20 18 16 13 10 7 6 6 10 14 15 15 15 15 15
11 13 14 15 19 25 27 28 28 27 27 27 27 27 27 27 27 27 28 28 28 27 26 26 26 26 25 23 22 21 19 15 9 6 8 6 11 15 16 16 16 16 15
11 13 14 14 16 15 14 24 27 26 27 27 26 26 26 24 24 26 26 27 28 28 27 27 26 26 25 24 23 23 21 15 7 7 6 8 15 17 17 18 18 18 17
15 13 13 14 15 15 13 19 19 21 24 23 20 25 21 11 11 15 23 27 28 27 27 27 28 26 25 21 23 24 17 8 9 7 6 13 18 19 19 19 19 19 18
14 13 11 13 15 14 13 11 9 11 12 12 11 12 10 10 11 16 22 25 26 26 26 27 27 23 19 12 15 18 8 11 8 7 7 15 19 20 20 19 20 20 20
8 11 12 13 14 14 11 10 7 8 8 10 12 12 10 8 9 9 8 12 13 17 13 17 16 12 13 12 11 10 10 9 7 8 9 16 18 20 20 20 20 21 21
9 11 11 11 12 11 10 9 8 8 8 8 10 12 9 7 9 9 8 9 8 8 11 11 10 13 14 14 14 13 12 9 8 7 9 18 20 20 19 20 20 21 21
10 9 9 9 11 10 9 9 9 8 9 9 8 9 11 8 9 9 8 8 8 8 10 10 11 13 13 13 13 14 14 13 12 9 8 18 20 20 18 18 20 21 21
7 8 8 9 10 10 9 9 8 8 9 9 8 10 11 8 9 9 9 8 8 9 9 9 11 11 11 11 13 14 14 13 11 12 10 12 18 19 18 17 18 20 21
6 7 10 10 10 9 9 10 9 8 9 8 8 9 12 11 10 9 8 8 9 10 11 10 10 9 10 11 13 14 12 12 13 14 12 10 10 15 17 18 17 18 20
6 7 8 11 9 9 8 8 7 7 8 8 8 8 11 12 12 10 8 8 9 9 9 10 10 10 10 11 11 11 11 12 15 14 12 10 8 8 11 17 17 17 19
5 6 7 7 8 8 8 7 6 6 7 6 7 8 10 12 13 10 7 8 9 8 9 11 11 11 11 12 12 11 11 12 12 12 12 11 9 8 7 11 14 15 16
5 5 6 7 8 7 6 6 5 6 6 5 6 8 11 11 13 10 7 9 9 8 9 10 12 11 10 11 13 13 12 12 9 8 9 8 7 8 7 8 7 8 13
6 7 7 7 7 6 6 7 8 8 8 7 7 9 11 11 12 10 9 8 9 8 10 12 12 12 10 10 11 13 10 9 6 5 5 6 7 9 8 7 5 5 5
5 5 5 6 6 6 5 5 5 6 5 6 6 7 9 11 11 11 10 9 9 9 10 11 11 9 9 9 10 11 8 7 7 8 5 6 7 8 9 10 8 6 5
3 4 7 6 6 7 7 5 6 4 4 5 5 6 8 10 10 9 10 9 9 9 9 11 9 10 10 9 7 7 7 7 12 7 6 6 8 8 8 8 9 9 7
2 4 5 6 6 6 6 7 8 10 7 7 7 7 8 9 9 9 10 9 9 9 9 10 10 9 9 9 8 6 7 8 7 9 7 6 8 9 9 9 9 9 8
4 5 5 6 6 6 7 7 7 7 6 6 8 8 7 7 8 10 9 8 9 9 10 10 10 10 8 8 8 9 9 8 8 8 11 11 9 7 8 9 7 7 7
5 5 5 6 6 7 7 7 8 8 9 11 11 9 9 7 6 9 10 8 9 9 10 10 9 10 9 9 8 8 9 8 8 7 9 12 12 10 10 8 7 6 6
Wind_Direction
343 349 9 17 21 23 24 24 24 24 23 21 18 16 14 11 8 5 1 358 354 349 344 337 332 330 327 323 320 318 314 310 311 315 311 295 248 192 158 130 129 171 160
346 357 11 18 21 23 24 24 23 23 23 21 19 16 14 13 11 8 4 0 356 351 346 338 331 326 322 318 314 308 301 295 290 289 291 291 269 232 193 163 157 171 165
8 4 7 18 20 21 22 23 23 22 22 21 19 16 15 13 13 11 9 5 0 355 348 342 332 323 317 313 309 302 294 289 282 274 275 277 269 247 217 186 181 169 169
19 11 11 18 18 19 20 20 21 20 20 20 19 16 14 13 12 11 10 7 3 358 353 346 339 329 319 311 305 299 292 285 278 270 264 254 260 254 230 201 191 182 178
24 13 10 19 17 18 19 19 19 18 18 18 17 15 13 12 10 9 8 4 2 359 356 352 345 337 327 316 306 298 290 284 277 269 255 254 258 262 242 213 199 191 186
23 14 12 20 17 16 17 17 16 16 16 15 14 13 12 10 8 7 6 2 360 358 356 352 349 345 337 326 313 301 293 287 280 264 253 250 251 262 245 215 202 196 192
25 18 16 20 17 15 16 16 14 14 14 13 12 11 10 8 6 5 3 360 358 356 355 353 352 349 344 337 324 310 299 293 280 258 251 247 249 260 246 218 206 200 197
27 21 20 18 17 14 14 14 13 13 12 11 10 9 9 7 4 3 1 357 355 355 353 352 351 349 345 341 336 327 314 300 285 270 257 250 253 257 244 224 210 205 202
29 25 21 16 14 11 10 12 11 11 10 10 9 9 8 6 3 2 359 354 354 352 352 350 350 347 346 342 340 337 330 311 286 270 268 261 261 258 244 227 214 209 206
29 25 20 16 14 7 3 9 9 9 9 10 9 8 9 6 3 2 356 353 353 351 351 349 348 346 345 342 341 339 334 323 297 276 265 264 267 265 254 235 219 212 208
27 22 20 17 13 6 3 4 5 6 6 7 6 7 8 1 357 2 354 353 352 351 351 348 347 345 344 340 338 338 337 329 313 291 272 268 269 268 261 245 228 216 210
21 17 20 18 12 7 4 359 359 1 358 359 1 4 2 360 358 2 352 353 351 349 350 346 345 346 344 335 333 337 332 326 318 307 291 282 277 271 264 252 237 224 214
23 20 20 21 13 8 3 357 1 356 354 355 358 4 1 357 354 354 349 349 346 348 347 342 341 341 338 333 329 327 329 328 322 314 305 298 292 282 269 255 242 230 220
33 23 18 24 13 6 3 354 2 356 354 355 354 2 2 357 354 350 347 343 344 344 340 338 334 333 335 331 329 328 328 324 317 313 307 310 303 293 278 260 244 233 226
38 22 12 25 14 6 5 358 3 356 354 350 353 360 1 358 352 346 343 341 340 340 337 334 332 333 333 330 328 328 324 319 313 314 312 309 310 303 288 267 248 234 229
41 22 11 26 15 8 8 360 357 354 351 349 353 356 357 354 349 344 339 339 340 339 334 330 325 330 327 326 325 324 317 313 311 312 307 306 306 308 297 278 258 241 232
47 29 18 20 14 6 5 0 358 350 349 351 353 353 353 352 348 344 338 341 342 337 333 330 326 330 327 326 322 319 314 313 311 308 305 300 300 304 301 286 269 252 240
50 36 23 17 11 4 0 355 350 349 348 350 351 351 351 351 349 344 338 343 342 339 336 331 333 332 327 324 321 316 313 310 305 302 299 295 295 294 299 293 278 262 248
52 37 22 12 8 359 352 347 338 340 344 346 346 348 349 349 348 343 339 342 342 340 337 334 336 330 327 326 320 315 312 303 296 298 299 297 292 289 289 293 284 267 256
47 36 22 9 3 354 348 344 341 346 345 344 342 348 349 347 346 341 346 342 344 341 339 336 334 330 327 325 322 315 303 292 287 290 301 310 311 310 305 298 289 272 257
34 23 14 3 355 355 354 354 350 349 344 344 344 347 348 346 344 342 348 341 345 341 336 336 332 330 331 330 323 320 300 286 284 313 319 322 334 339 331 324 307 289 269
26 3 6 360 354 352 347 338 336 328 323 331 324 334 340 343 343 349 345 342 342 338 335 335 332 331 328 335 329 323 319 312 343 325 322 328 341 340 344 341 332 322 301
9 356 11 358 351 346 340 338 339 330 321 333 335 340 339 338 339 339 338 338 337 335 331 330 330 334 327 326 330 319 321 330 326 305 323 331 340 336 339 334 340 332 311
354 0 5 354 346 342 343 349 349 350 341 334 332 328 327 329 332 336 334 336 334 330 327 326 335 323 322 323 322 311 309 308 306 312 314 330 334 331 332 333 328 325 322
11 7 355 347 342 341 343 344 340 337 324 322 327 326 325 322 325 329 331 332 330 327 324 321 322 322 319 315 317 317 312 305 290 298 306 319 324 324 328 320 315 316 324
7 357 348 345 340 341 342 340 336 334 330 332 334 331 331 326 322 322 329 327 324 323 321 320 319 318 315 312 314 312 311 308 309 306 304 312 314 318 317 311 315 326 333